Dewpoint
27 21 16 14 18 14 14 13 11 13 16 17 18 20 21 23 23 24 23 20 19 18 20 20 22 19 20 28 32 37 42 48 54 53 48 46 46 45 45 44 41 41 41 42
23 24 23 20 21 19 18 18 20 21 20 21 22 23 24 24 26 25 22 19 21 23 24 30 30 32 33 30 32 34 37 44 51 54 51 48 45 46 45 47 45 44 43 42
23 24 24 21 21 21 21 21 21 20 23 24 23 21 20 17 22 22 27 30 31 31 30 31 32 35 37 37 38 36 37 39 45 54 53 51 48 48 47 46 45 44 42 43
25 24 22 25 23 23 23 25 25 24 24 19 21 17 20 17 19 26 29 29 26 26 27 29 31 33 33 36 40 41 39 37 41 49 54 52 50 48 46 46 45 43 42 41
20 22 24 24 22 24 23 26 26 27 25 25 23 20 16 19 21 25 27 25 23 21 22 24 26 31 32 35 38 40 41 39 41 40 52 54 51 49 47 45 44 43 42 41
25 26 25 25 26 26 27 28 26 26 27 23 18 18 15 16 21 26 27 27 27 21 20 24 26 27 28 35 40 43 40 41 43 46 46 53 52 50 47 44 43 43 42 41
23 23 26 31 28 29 29 23 16 15 25 21 16 15 15 18 27 25 20 20 18 18 20 24 26 29 30 37 39 39 41 44 40 41 45 46 52 50 48 46 43 43 41 40
27 21 25 25 26 28 28 24 18 13 10 11 18 16 11 20 23 19 13 9 10 19 25 27 28 32 31 34 36 37 38 40 41 39 41 43 47 50 48 47 44 42 41 40
23 21 24 18 28 25 21 19 25 25 21 16 14 12 12 12 15 10 6 7 10 18 25 27 29 30 30 32 34 36 38 40 41 38 38 39 40 45 48 47 46 43 41 40
22 11 12 23 17 22 21 12 10 12 6 3 -3 3 6 13 10 8 8 9 12 21 24 27 28 29 30 32 33 35 37 39 41 40 36 37 39 39 43 46 46 44 42 42
18 12 12 20 10 9 9 8 12 15 16 12 10 9 9 11 10 12 10 9 13 23 25 26 26 26 30 31 33 32 33 38 40 42 39 36 37 37 38 41 44 43 43 41
16 13 4 7 10 9 9 11 17 16 15 15 17 16 11 11 12 11 9 13 20 25 25 25 25 26 27 31 30 27 29 36 39 41 41 37 36 36 37 38 40 41 41 41
19 13 12 9 19 19 18 19 14 17 25 21 15 14 15 13 10 9 10 15 21 23 24 24 25 26 28 26 26 27 28 34 38 39 41 39 36 35 35 36 38 38 38 38
27 18 14 14 15 17 17 17 16 15 21 15 14 12 12 10 9 10 15 19 22 24 24 25 28 26 27 26 25 27 29 33 38 40 41 42 36 36 36 36 37 37 36 36
23 19 18 16 17 17 16 16 15 14 14 14 14 11 11 7 10 15 18 22 23 24 22 23 24 26 26 27 28 30 33 34 37 41 41 42 40 36 35 36 37 36 36 34
23 22 22 20 18 17 16 15 15 14 13 11 8 8 8 12 14 20 22 23 22 22 24 22 24 26 27 27 30 33 33 33 37 40 42 42 41 37 37 36 35 36 37 34
24 24 23 19 16 15 15 13 11 9 9 10 10 14 14 18 22 23 24 24 24 25 25 25 26 28 29 30 31 31 30 32 38 40 41 42 38 39 36 36 36 38 38 35
23 22 23 23 20 15 12 13 12 11 11 14 14 17 21 24 25 25 24 25 26 26 27 28 28 30 31 31 32 31 29 30 37 37 39 40 37 37 38 35 36 36 36 36
22 23 23 21 17 16 13 12 14 15 16 19 20 26 26 25 26 25 25 25 26 27 27 27 27 29 30 30 30 31 31 32 36 38 38 37 35 34 37 38 36 36 36 36
18 19 24 21 21 17 14 16 18 21 19 24 28 28 26 28 29 29 26 26 26 25 26 28 29 28 28 29 30 32 32 34 36 38 39 38 35 33 32 38 38 37 36 35
15 19 23 23 24 20 16 16 22 20 21 27 27 29 30 31 33 32 29 26 25 27 28 29 30 29 30 29 30 31 32 35 38 38 37 35 32 30 31 38 39 38 36 35
20 20 18 17 20 15 16 18 18 23 27 30 30 31 32 35 35 33 30 29 28 28 29 29 30 30 30 30 29 30 32 38 38 38 37 34 30 29 29 41 43 36 36 35
18 17 21 21 21 20 22 22 26 30 29 32 33 34 35 34 31 27 29 28 28 28 29 30 30 31 31 31 30 30 34 38 37 37 36 30 29 31 33 39 43 35 35 34
16 18 22 23 21 19 20 21 26 33 33 34 32 31 32 31 31 31 30 28 28 29 29 30 30 30 31 32 31 30 32 39 38 37 33 28 33 37 35 38 40 37 34 33
21 22 20 20 20 21 23 27 31 32 32 31 31 31 31 31 31 31 30 29 28 29 31 32 32 32 32 32 32 31 32 40 38 36 32 29 36 34 34 36 40 35 32 33
24 21 21 23 20 27 29 31 33 31 31 32 32 32 32 30 31 29 28 29 29 30 31 32 33 33 33 33 32 32 33 41 38 37 32 34 38 38 34 37 38 43 40 42
Lifted_Index
7 6 6 7 7 7 6 5 5 6 7 7 6 5 5 6 7 7 8 8 8 8 8 8 8 8 8 8 8 7 6 4 3 4 5 7 8 9 10 11 11 12 12 12
7 7 7 8 8 7 6 5 5 6 7 7 6 5 5 6 7 7 8 8 8 8 8 8 8 8 8 8 8 7 7 5 4 4 5 6 8 9 10 10 11 11 11 11
7 7 8 8 8 7 7 6 6 6 6 6 6 5 5 6 7 8 9 9 9 9 9 10 10 9 9 9 9 8 8 7 5 4 4 6 7 8 9 10 10 10 10 11
8 8 8 8 7 7 7 7 7 6 5 5 4 4 5 6 7 8 9 9 10 11 11 11 11 11 10 10 9 9 8 8 7 5 5 5 6 8 8 9 9 9 10 10
8 9 8 8 8 8 7 8 7 6 5 4 4 4 4 5 7 8 9 10 11 12 13 13 12 12 11 11 10 9 9 8 8 7 5 5 6 7 8 8 8 9 9 10
9 9 9 9 9 9 8 7 6 5 4 3 4 5 5 5 6 8 9 10 12 13 13 13 12 12 11 10 10 9 9 9 8 8 6 6 6 7 7 8 8 9 9 9
8 8 9 9 9 9 8 7 4 2 2 2 4 5 4 4 6 8 10 12 13 14 14 13 12 11 10 10 9 8 8 8 8 8 8 7 6 6 7 8 9 9 9 9
5 6 9 10 10 9 8 7 4 2 2 2 4 5 5 5 7 9 11 13 14 14 14 13 13 11 10 10 9 8 8 7 8 8 8 8 7 7 7 8 8 9 9 9
6 6 9 11 11 10 9 8 6 5 3 2 3 5 6 7 8 10 11 12 13 13 13 13 12 11 11 10 9 8 7 6 7 8 9 9 9 8 8 7 8 9 10 10
9 8 9 11 11 11 10 9 8 7 4 2 3 5 7 8 10 11 12 12 11 11 11 11 10 10 10 9 8 7 6 5 6 7 9 10 10 9 8 8 8 9 10 11
11 9 8 10 11 11 11 11 10 9 7 4 4 5 8 10 11 12 12 11 10 9 8 8 7 7 6 6 6 6 5 5 5 6 7 9 9 9 9 8 8 9 10 10
13 10 7 8 11 12 12 12 12 10 8 7 6 6 10 12 12 12 11 9 6 5 4 4 3 3 3 3 4 4 5 5 5 5 5 7 8 8 9 8 8 9 10 10
14 10 6 6 10 12 13 13 13 11 10 8 8 8 11 12 11 10 8 5 2 1 1 1 0 0 0 1 2 3 4 4 5 5 5 6 7 8 8 8 8 9 9 10
14 11 7 7 9 12 12 12 13 12 11 10 10 10 10 9 8 6 4 2 0 0 0 0 -0 0 0 1 1 1 2 3 3 4 4 5 7 8 8 8 8 9 9 9
12 10 9 10 11 12 12 12 13 12 12 12 11 10 8 6 3 2 1 0 0 0 0 0 0 0 1 1 1 1 1 1 2 2 4 5 7 8 8 9 9 9 9 9
12 10 9 10 11 12 12 12 13 13 12 11 10 8 5 3 2 1 0 0 0 -0 -0 0 0 0 1 1 1 0 0 1 0 1 3 5 7 8 9 9 9 9 9 9
12 11 9 8 9 10 10 11 12 12 11 9 7 5 3 2 1 0 0 -0 -0 -0 -0 -0 -0 -0 -0 0 0 1 1 1 0 0 2 5 7 8 9 9 9 9 9 9
12 12 10 8 8 8 9 11 11 11 9 7 4 3 1 1 0 0 0 -0 -0 -0 -0 -0 -0 -0 -0 -0 0 1 1 1 0 -0 1 4 7 8 8 9 10 9 9 9
12 12 11 8 7 7 9 10 10 10 8 5 2 1 0 0 0 0 0 0 0 0 0 -0 -0 -0 -0 0 0 1 1 1 0 0 1 3 6 8 8 9 10 10 9 9
12 11 11 9 7 7 9 10 9 8 6 3 0 -0 -0 -0 -0 -0 0 0 0 0 0 0 0 0 0 0 1 1 1 1 1 1 1 3 5 7 8 9 9 10 9 9
11 11 10 10 8 7 8 8 7 5 3 1 -0 -1 -1 -1 -1 -0 0 0 1 1 1 0 0 0 0 1 1 1 2 1 2 2 2 3 5 8 9 9 9 10 10 9
10 10 10 10 9 7 7 6 4 3 1 0 -0 -1 -1 -1 -0 -0 0 0 1 1 1 1 0 0 1 1 1 2 2 2 3 3 4 4 6 8 9 9 8 9 10 10
10 10 10 10 9 7 6 5 3 2 1 0 -0 -0 -0 -0 -0 0 0 0 1 1 1 1 1 1 1 1 1 2 2 3 4 4 5 5 6 8 9 8 8 8 9 10
11 11 10 10 9 8 6 4 3 2 1 1 1 0 -0 -0 -0 0 0 1 1 1 1 1 1 1 1 1 2 2 3 4 4 5 5 6 6 7 8 9 9 9 10 10
11 11 10 10 9 7 5 3 3 3 2 2 2 1 1 0 0 0 1 1 1 1 1 1 1 1 2 2 2 3 4 4 5 5 6 7 7 8 9 10 10 10 10 11
11 11 10 9 8 7 5 3 3 3 3 3 2 2 1 1 0 1 1 1 1 1 1 1 1 2 2 2 2 3 4 4 5 5 7 7 8 8 10 10 10 11 11 11